Location: Buckeye Ditch
(40.9104°N, 122.9517°W)
Time: 13:14:44
(UTC+00:00)

Explorer 7 - Pass Details

Date: 20 May 2025
Orbit: 445 x 571 km, 50.3° (Epoch: 22 June)

Event Time Altitude Azimuth Distance (km) Brightness Sun altitude
Rises 10:05:08 0° 228° (SW) 2,466 - -23.3°
Reaches altitude 10° 10:07:15 10° 226° (SW) 1,611 - -23.1°
Maximum altitude 10:10:51 67° 143° (SE) 520 - -22.7°
Exits shadow 10:11:25 56° 92° (E) 576 7.0 -22.7°
Drops below altitude 10° 10:14:38 10° 61° (ENE) 1,689 10.1 -22.3°
Sets 10:16:53 0° 58° (ENE) 2,599 11.3 -22.1°
